This is the latest recevied weather packets stored in our database for station/object W8RSN-13. If no packets are shown the sender has not sent any weather packets the latest 10 day(s).
| Time | Temp. | Humidity | Pressure | Rain* | Wind** | Luminosity | Snow |
|---|---|---|---|---|---|---|---|
| 1788259768 | 16.67° C | 73% | 1016.6 hPa | - | - | - | - |
| 1788259467 | 16.67° C | 74% | 1016.5 hPa | - | - | - | - |
| 1788259166 | 17.22° C | 73% | 1016.6 hPa | - | - | - | - |
| 1788258865 | 17.22° C | 72% | 1016.4 hPa | - | - | - | - |
| 1788258564 | 17.22° C | 71% | 1016.4 hPa | - | - | - | - |
| 1788258263 | 17.78° C | 69% | 1016.5 hPa | - | - | - | - |
| 1788257962 | 17.78° C | 67% | 1016.6 hPa | - | - | - | - |
| 1788257661 | 17.78° C | 66% | 1016.3 hPa | - | - | - | - |
| 1788257361 | 17.78° C | 67% | 1016.4 hPa | - | - | - | - |
| 1788257060 | 17.78° C | 66% | 1016.5 hPa | - | - | - | - |
| 1788256759 | 17.78° C | 70% | 1016.7 hPa | - | - | - | - |
| 1788256458 | 17.22° C | 71% | 1016.6 hPa | - | - | - | - |
| 1788256157 | 17.22° C | 72% | 1016.6 hPa | - | - | - | - |
| 1788255856 | 17.22° C | 73% | 1016.6 hPa | - | - | - | - |
| 1788255575 | 17.22° C | 74% | 1016.5 hPa | - | - | - | - |
| 1788255274 | 17.78° C | 73% | 1016.5 hPa | - | - | - | - |
| 1788254973 | 17.78° C | 73% | 1016.5 hPa | - | - | - | - |
| 1788254672 | 17.78° C | 73% | 1016.5 hPa | - | - | - | - |
| 1788254371 | 17.78° C | 72% | 1016.5 hPa | - | - | - | - |
| 1788254071 | 17.78° C | 71% | 1016.4 hPa | - | - | - | - |
| 1788253770 | 18.33° C | 74% | 1016.5 hPa | - | - | - | - |
| 1788253469 | 17.78° C | 74% | 1016.4 hPa | - | - | - | - |
| 1788253168 | 17.78° C | 72% | 1016.4 hPa | - | - | - | - |
| 1788252867 | 18.33° C | 71% | 1016.6 hPa | - | - | - | - |
| 1788252566 | 18.33° C | 72% | 1016.6 hPa | - | - | - | - |
* Rain since midnight (hover to see other rain measurements)
** Current wind speed in m/s (hover to see current wind gust speed)